Weather in Chkalovsk

Russia / Kaliningrad Oblast     54˚46′07″N   20˚26′52″E
temp.,
°C
wind,
m/s
gust,
m/s
humid.,
%
clouds,
%
prec.,
mm/h
press.,
hPa
HPBL,
m
17 january, sun
sun1723:00−17˚e389287 0.0 1019154
02:00−19˚ese239346 0.0 102041
05:00−19˚e22910 0.0 102021
08:00−19˚ese22880 0.0 102121
11:00−17˚sse118312 0.0 102277
14:00−13˚sse118315 0.0 1023126
17:00−16˚s11880 0.0 102221
20:00−16˚ssw12896 0.0 102220
18 january, mon
mon1823:00−14˚s339086 0.0 102230
02:00−13˚ssw349393 0.0 102282
05:00−14˚ssw369196 0.0 102194
08:00−14˚ssw348892 0.0 102148
11:00−12˚ssw368798 0.0 1021162
14:00−10˚ssw358799 0.0 1020250
17:00−13˚s3489100 0.0 101951
20:00−13˚s3690100 0.0 101899
19 january, tue
tue1923:00−13˚sse3793100 0.0 1017154
02:00−12˚sse3793100 0.0 1015151
05:00−12˚se4109397 0.0 1012210
08:00−9˚sse599598 0.8 1012314
11:00−7˚sse5896100 0.9 1010256
14:00−4˚sse469797 1.4 1010201
17:00−4˚se369799 0.1 1009117
20:00−2˚se369899 0.1 1009156
20 january, wed
wed2023:00sse3698100 0.1 1009213
02:00+1˚sse4898100 0.3 1008361
05:00sse51097100 0.2 1007466
08:00−1˚sse51193100 0.3 1006446
11:00−1˚sse61293100 0.0 1005406
14:00+1˚sse51099100 1.4 1003323
17:00+2˚ssw51299100 3.2 1003376
20:00+1˚sw51199100 3.9 1003366
21 january, thu
thu2123:00+1˚ssw41099100 0.1 1003312
02:00+1˚ssw41098100 0.2 1004283
05:00+1˚ssw499599 0.0 1003266
08:00+1˚s4108795 0.0 1003243
11:00+1˚ssw5118897 0.0 1003290
14:00+2˚s4109768 0.0 1003278
17:00+1˚sse499349 0.0 1001221
20:00+2˚s6149174 0.0 1000463